Total_Precipitation_Accumulation
0.23 0.25 0.28 0.25 0.25 0.26 0.29 0.41 0.58 0.41 0.11 0.02 0.04 0.06 0.10 0.15 0.20 0.21 0.22 0.23 0.26 0.32 0.37 0.40 0.44 0.58 0.89 1.50 2.46 3.44 3.60 2.86 1.98 1.43 1.33 1.63 1.95 2.31
0.28 0.31 0.33 0.35 0.35 0.33 0.34 0.36 0.45 0.54 0.31 0.05 0.04 0.08 0.13 0.17 0.22 0.20 0.22 0.25 0.24 0.26 0.29 0.34 0.39 0.50 0.70 1.00 1.58 2.47 3.31 3.49 2.92 2.17 1.74 1.74 1.95 2.18
0.32 0.39 0.43 0.46 0.50 0.48 0.46 0.42 0.40 0.45 0.43 0.11 0.03 0.06 0.14 0.20 0.21 0.21 0.23 0.22 0.19 0.20 0.24 0.29 0.35 0.45 0.60 0.81 1.13 1.71 2.52 3.22 3.39 2.97 2.49 2.16 2.07 2.08
0.42 0.44 0.46 0.50 0.56 0.58 0.59 0.53 0.43 0.37 0.41 0.26 0.07 0.06 0.11 0.21 0.27 0.26 0.25 0.23 0.20 0.20 0.23 0.28 0.34 0.42 0.54 0.70 0.92 1.25 1.85 2.50 3.04 3.16 2.88 2.47 2.22 2.24
0.68 0.68 0.63 0.58 0.60 0.60 0.63 0.61 0.52 0.42 0.38 0.36 0.20 0.10 0.12 0.21 0.33 0.36 0.32 0.28 0.24 0.23 0.24 0.27 0.30 0.35 0.44 0.57 0.75 0.97 1.25 1.68 2.17 2.77 2.99 2.76 2.42 2.30
0.74 0.79 0.80 0.83 0.78 0.73 0.71 0.67 0.62 0.58 0.51 0.48 0.36 0.23 0.19 0.24 0.40 0.49 0.43 0.35 0.31 0.28 0.28 0.27 0.30 0.33 0.36 0.38 0.44 0.61 0.86 1.25 1.71 2.23 2.73 2.84 2.55 2.34
0.54 0.57 0.67 0.83 0.92 0.97 1.01 0.92 0.87 0.91 0.82 0.74 0.61 0.46 0.36 0.39 0.50 0.56 0.63 0.53 0.44 0.38 0.36 0.29 0.28 0.25 0.25 0.28 0.35 0.44 0.61 0.84 1.18 1.65 2.15 2.54 2.59 2.44
0.37 0.36 0.39 0.56 0.67 0.79 0.94 0.98 1.04 1.19 1.24 1.13 0.92 0.74 0.52 0.47 0.53 0.69 0.81 0.86 0.72 0.46 0.47 0.43 0.37 0.34 0.27 0.24 0.26 0.33 0.46 0.67 0.89 1.22 1.62 2.05 2.33 2.47
0.21 0.22 0.23 0.32 0.43 0.48 0.58 0.68 0.79 0.96 1.19 1.30 1.24 0.91 0.64 0.51 0.64 0.81 0.86 0.93 0.82 0.65 0.72 0.78 0.62 0.51 0.39 0.34 0.36 0.35 0.42 0.55 0.72 0.93 1.22 1.62 1.99 2.26
0.16 0.15 0.12 0.17 0.31 0.44 0.54 0.57 0.58 0.70 0.98 1.23 1.37 1.18 0.93 0.80 0.92 1.13 1.23 1.22 1.04 0.90 0.93 1.10 0.91 0.73 0.60 0.50 0.43 0.38 0.41 0.47 0.59 0.73 0.95 1.27 1.64 1.95
0.14 0.16 0.12 0.11 0.26 0.43 0.48 0.44 0.40 0.47 0.63 0.92 1.15 1.20 1.17 1.20 1.30 1.55 1.69 1.63 1.47 1.19 1.08 1.18 1.18 1.05 0.90 0.79 0.63 0.49 0.44 0.46 0.51 0.63 0.76 0.98 1.31 1.74
0.12 0.13 0.18 0.22 0.32 0.40 0.38 0.39 0.45 0.41 0.41 0.49 0.59 0.69 0.78 0.85 1.07 1.37 1.55 1.61 1.59 1.58 1.26 1.17 1.34 1.40 1.50 1.19 0.85 0.56 0.47 0.50 0.53 0.59 0.69 0.82 1.08 1.39
0.19 0.18 0.17 0.24 0.30 0.34 0.38 0.39 0.48 0.47 0.45 0.53 0.55 0.53 0.57 0.68 0.82 1.07 1.34 1.53 1.65 1.62 1.31 1.28 1.50 1.43 1.52 1.45 1.15 0.81 0.52 0.47 0.51 0.61 0.70 0.77 0.90 1.05
0.21 0.17 0.17 0.21 0.27 0.33 0.34 0.36 0.40 0.43 0.46 0.46 0.43 0.43 0.49 0.60 0.73 0.91 1.12 1.30 1.38 1.41 1.25 1.25 1.59 1.45 1.34 1.26 1.20 1.08 0.79 0.58 0.49 0.51 0.59 0.82 0.96 1.00
0.29 0.27 0.22 0.24 0.25 0.20 0.20 0.26 0.30 0.32 0.40 0.43 0.37 0.34 0.41 0.54 0.62 0.73 0.87 1.06 1.18 1.24 1.27 1.24 1.40 1.47 1.42 1.29 1.05 0.98 0.96 0.85 0.62 0.54 0.59 0.66 0.75 0.84
0.29 0.26 0.22 0.21 0.17 0.13 0.12 0.14 0.17 0.23 0.32 0.37 0.33 0.29 0.31 0.42 0.54 0.67 0.83 0.97 1.15 1.19 1.23 1.31 1.43 1.63 1.62 1.31 1.11 0.96 0.83 0.92 0.79 0.60 0.60 0.66 0.66 0.61
0.40 0.36 0.27 0.21 0.19 0.16 0.12 0.10 0.11 0.17 0.23 0.26 0.28 0.29 0.32 0.39 0.48 0.60 0.80 0.96 1.11 1.12 1.23 1.43 1.56 1.65 1.72 1.65 1.50 1.10 0.82 0.75 0.71 0.61 0.64 0.76 0.82 0.71
0.42 0.40 0.25 0.18 0.17 0.16 0.15 0.12 0.10 0.13 0.15 0.20 0.26 0.29 0.34 0.40 0.47 0.54 0.71 0.91 1.02 1.05 1.15 1.35 1.57 1.74 1.93 2.01 1.77 1.30 0.95 0.82 0.79 0.71 0.65 0.74 0.90 0.84
0.30 0.25 0.17 0.15 0.14 0.14 0.14 0.13 0.12 0.10 0.13 0.19 0.23 0.26 0.31 0.37 0.44 0.50 0.61 0.76 0.89 0.99 1.10 1.23 1.44 1.63 1.76 1.88 1.96 1.59 1.17 0.97 0.95 0.95 0.84 0.72 0.75 0.82
0.15 0.16 0.16 0.15 0.15 0.16 0.15 0.15 0.14 0.13 0.15 0.17 0.18 0.20 0.26 0.34 0.39 0.44 0.51 0.66 0.79 0.91 1.03 1.13 1.29 1.45 1.50 1.46 1.57 1.68 1.54 1.18 1.02 1.04 0.99 0.90 0.91 1.02
0.12 0.13 0.14 0.17 0.17 0.16 0.16 0.15 0.15 0.15 0.14 0.16 0.17 0.18 0.22 0.30 0.35 0.37 0.44 0.55 0.71 0.83 0.91 0.99 1.13 1.27 1.43 1.44 1.37 1.39 1.57 1.56 1.18 0.96 0.93 1.01 1.14 1.18
0.14 0.15 0.15 0.16 0.17 0.18 0.18 0.17 0.17 0.15 0.14 0.15 0.15 0.16 0.19 0.25 0.30 0.33 0.40 0.48 0.58 0.70 0.80 0.89 1.03 1.25 1.48 1.54 1.40 1.26 1.40 1.62 1.64 1.34 1.06 0.91 0.91 0.92
0.19 0.18 0.17 0.17 0.17 0.18 0.19 0.18 0.17 0.14 0.12 0.13 0.14 0.14 0.16 0.20 0.22 0.27 0.33 0.40 0.50 0.60 0.74 0.88 1.02 1.21 1.41 1.48 1.45 1.29 1.24 1.37 1.52 1.54 1.50 1.23 0.85 0.60